Dewpoint
46 45 45 46 46 46 48 49 50 50 51 52 53 54 54 53 54 56 58 58 58 58 58 58 58 58 57 57 56 56 55 55 55 55 54 53 52 52 52 52 53 53 53 53 53 53 53 53 53 52 52 51 48 44 41 41 42 42 42 41 42 43 44 45 45 46 46 47 47
46 46 46 47 47 48 49 51 51 51 52 53 54 54 54 54 56 58 58 58 58 58 58 58 58 57 56 56 55 55 55 55 55 54 54 53 52 52 52 52 53 53 53 53 53 53 53 53 53 52 52 51 47 44 42 42 43 43 43 42 43 44 45 46 46 47 47 47 47
46 47 47 48 48 49 49 51 51 52 53 53 54 55 56 57 58 58 58 58 58 58 57 57 57 56 55 55 54 55 55 55 55 54 54 53 52 52 52 53 53 53 53 53 53 53 53 53 52 52 52 51 46 43 42 43 44 43 43 43 44 45 45 46 47 48 48 48 47
48 48 48 48 49 49 51 52 52 53 53 53 54 56 58 59 59 58 58 58 58 57 57 57 57 56 55 54 54 55 55 55 54 54 54 53 52 52 52 53 53 53 53 53 53 53 53 52 52 52 51 50 45 43 43 44 44 44 43 43 44 45 46 47 48 48 48 48 46
49 49 49 49 50 51 52 53 53 53 53 54 54 56 58 58 58 58 58 58 57 57 57 57 56 55 54 54 54 54 55 55 54 54 54 53 53 53 53 53 53 53 53 53 53 53 53 53 53 52 51 48 45 44 44 44 44 44 44 44 45 46 47 48 48 48 48 47 45
49 50 50 52 52 53 54 54 54 54 54 54 55 57 58 58 58 58 57 57 57 57 56 56 56 55 54 54 54 54 54 54 54 54 54 53 53 53 53 53 53 53 53 53 53 53 53 53 53 53 51 48 45 44 44 44 44 44 44 45 46 47 48 48 48 47 46 45 44
50 50 51 53 53 54 54 54 54 54 55 55 56 57 58 57 57 57 57 57 57 56 56 56 55 54 54 54 54 54 54 54 54 54 54 54 54 53 53 53 53 53 53 53 53 53 53 53 53 52 50 46 45 44 44 44 44 44 45 46 47 48 48 48 47 46 45 44 43
51 51 52 53 54 54 54 54 55 55 56 56 57 57 57 57 57 57 57 57 56 56 56 56 55 54 53 53 54 54 54 54 54 54 54 54 53 53 53 53 53 53 53 53 53 53 53 53 53 52 49 45 45 45 45 45 45 45 45 46 47 48 47 47 46 45 44 43 43
52 52 53 54 54 54 54 54 55 56 56 57 57 57 57 57 57 57 57 56 56 56 55 55 54 53 53 53 53 54 54 54 54 54 54 53 53 53 53 53 53 53 53 53 53 53 53 53 53 51 48 45 45 45 45 45 45 46 47 47 47 47 46 45 45 44 43 43 42
52 52 53 54 54 55 55 55 55 56 56 57 57 57 57 57 57 57 57 56 55 55 55 54 54 53 52 53 53 53 54 54 54 53 53 53 53 53 53 53 53 53 53 53 53 53 53 53 52 49 46 45 45 45 45 46 46 47 47 47 47 46 45 44 44 43 43 42 42
51 52 53 54 54 54 55 55 55 56 56 57 57 57 57 57 57 57 56 56 55 54 54 54 53 53 52 52 53 53 54 54 54 53 53 53 53 53 52 52 52 52 52 52 53 53 52 52 51 49 46 46 46 46 47 47 47 47 47 46 45 45 44 43 43 42 42 41 41
51 52 53 54 54 54 54 55 55 56 56 57 57 57 57 57 57 56 56 55 54 54 54 53 53 53 52 51 52 52 53 53 53 53 53 53 53 52 52 52 52 52 52 52 52 52 52 51 50 48 46 46 46 47 47 48 47 47 46 45 45 44 43 42 42 41 41 41 40
51 52 53 53 54 54 54 56 56 56 57 57 57 57 56 57 56 56 55 54 54 54 53 53 53 53 52 51 51 52 52 53 53 53 53 53 53 52 52 52 51 52 52 52 52 52 52 51 49 48 46 46 47 47 48 47 47 46 45 45 44 43 42 41 41 40 40 40 39
52 52 53 54 54 54 55 56 56 56 57 56 56 56 56 56 56 55 55 54 54 54 54 53 53 53 53 52 52 52 53 53 53 53 53 52 52 52 52 52 51 51 52 52 52 52 51 50 49 47 47 47 47 47 47 47 46 45 45 44 43 42 41 40 40 40 39 39 37
52 53 53 54 54 55 56 56 56 56 56 56 56 56 56 56 56 55 54 54 54 54 54 53 53 53 53 53 53 53 53 53 53 53 52 52 52 52 52 51 51 51 52 52 52 51 50 49 48 47 47 47 47 47 47 46 46 45 44 43 42 41 40 40 39 39 38 37 36
52 53 54 54 55 56 56 56 56 56 56 56 56 56 56 56 55 55 54 54 54 54 54 54 54 54 54 54 53 53 53 53 53 52 52 52 52 52 52 51 52 52 52 52 52 51 49 48 47 47 47 47 47 47 46 46 45 45 44 43 42 40 40 39 39 38 37 36 35
53 53 54 55 56 56 56 56 56 56 56 55 55 55 55 55 55 55 54 54 54 54 54 54 54 54 54 54 54 53 53 53 53 53 52 52 52 52 52 52 52 52 52 52 51 50 49 48 47 47 47 47 47 46 46 45 45 44 43 42 41 40 40 39 38 37 36 36 34
52 52 54 55 56 56 56 56 56 55 55 55 55 55 55 55 55 55 54 54 54 54 54 54 54 54 54 54 54 54 54 53 53 53 53 53 53 53 53 53 53 53 52 52 50 49 48 47 47 47 47 46 46 46 45 45 44 43 41 40 40 39 39 38 37 36 36 35 33
51 52 54 55 56 56 56 56 55 55 55 55 55 55 55 55 55 54 54 54 54 54 54 54 54 54 54 54 54 54 54 54 53 53 53 53 53 53 53 53 53 53 52 51 50 49 47 47 47 46 46 46 45 45 44 43 42 41 40 39 38 37 36 36 36 35 34 33 31
50 52 54 55 55 56 55 55 55 55 55 55 55 55 55 55 55 54 54 54 54 54 54 54 54 54 54 54 54 54 54 54 54 54 53 53 53 53 53 53 53 52 52 51 49 48 47 46 46 46 45 45 44 43 42 41 40 39 37 36 36 35 34 33 32 32 31 30 28
49 51 53 55 56 56 55 55 55 55 55 55 55 55 55 54 54 54 54 54 54 54 54 54 54 54 54 54 54 54 54 54 54 54 53 53 53 53 53 53 52 52 51 50 48 47 46 46 45 45 45 44 43 41 40 39 37 36 35 34 32 31 30 29 29 28 27 27 26
49 50 52 55 56 56 55 55 55 55 55 55 55 55 54 54 54 54 54 54 54 54 54 54 54 54 54 54 54 54 54 54 54 54 53 53 53 53 53 52 52 51 50 48 47 46 45 45 45 44 43 42 41 40 39 37 35 33 32 30 29 28 27 27 26 26 25 24 24
50 50 52 56 56 55 55 55 55 55 55 55 55 54 54 54 54 54 54 54 54 54 54 54 54 54 54 54 54 54 54 54 54 53 53 53 53 53 52 52 51 49 48 46 45 45 45 44 43 43 42 41 40 38 37 35 33 32 30 28 27 27 26 26 25 25 24 24 24
50 51 53 56 55 55 55 55 55 55 54 54 54 54 54 54 54 54 54 54 54 54 54 54 54 54 54 54 54 54 53 53 53 53 53 53 52 52 52 51 50 49 47 45 45 44 44 43 42 42 40 39 38 37 36 34 33 31 30 28 27 26 26 26 25 25 25 25 25
50 52 54 56 55 55 55 55 54 54 54 54 54 54 54 54 54 54 54 54 54 54 54 54 54 54 54 54 54 54 53 53 53 53 52 52 52 51 51 50 49 47 45 45 46 46 45 43 42 41 39 38 36 35 34 33 31 30 29 27 27 26 26 26 26 26 26 26 26
50 53 55 55 55 55 55 54 54 54 54 54 54 54 54 54 54 54 54 54 54 54 54 54 54 54 54 54 54 53 53 53 53 52 52 51 51 51 50 49 48 46 45 45 46 46 45 45 43 40 38 36 35 34 32 31 31 30 29 28 28 27 26 26 27 27 28 29 30
52 54 55 54 54 54 54 54 54 54 54 54 54 54 54 54 54 54 54 54 54 54 54 54 54 54 54 54 53 53 53 53 52 52 52 51 50 50 49 49 47 45 45 46 47 46 45 45 43 41 39 36 35 34 32 31 31 30 30 30 29 28 27 27 27 29 31 32 33
54 54 55 54 54 54 54 54 54 54 54 54 54 54 54 54 54 54 54 54 54 54 54 54 54 54 54 53 53 53 52 52 52 51 51 50 50 49 49 48 45 45 45 47 47 46 45 45 43 41 39 36 35 34 33 32 31 30 30 29 29 28 28 28 29 31 32 34 34
55 54 54 54 54 54 54 54 54 54 54 54 54 54 54 54 54 54 54 54 53 53 53 53 53 53 53 53 52 52 52 51 51 51 50 49 49 49 47 45 45 45 47 47 47 46 45 44 43 41 40 38 35 34 33 32 31 30 30 29 29 29 29 30 31 32 33 34 34
54 54 54 54 54 54 54 54 54 54 54 54 54 54 54 54 54 54 53 53 53 53 53 53 53 52 52 52 52 51 51 51 50 50 49 48 48 46 45 45 45 46 47 47 46 45 45 44 43 41 40 39 36 34 33 32 31 31 30 29 30 30 30 31 31 32 33 33 33
54 54 54 54 54 54 54 54 54 54 54 54 54 54 54 53 53 53 53 53 53 53 53 52 52 52 51 51 51 51 50 50 49 49 48 47 45 45 45 45 45 46 47 47 46 45 44 43 42 41 40 39 36 35 33 32 31 31 30 30 30 30 31 31 31 32 32 32 33
54 54 54 54 54 54 54 54 54 54 54 54 54 53 53 53 53 53 53 53 52 52 52 52 51 51 51 51 50 50 50 49 49 48 46 45 45 45 45 45 45 46 46 47 46 45 44 43 42 41 40 40 36 34 32 32 31 31 30 30 29 30 30 30 30 31 31 32 33
54 54 54 54 54 54 54 54 54 54 54 53 53 53 53 52 52 52 52 52 52 52 51 51 51 50 50 50 50 49 49 48 47 46 45 45 45 45 45 45 45 45 46 47 45 45 44 43 43 42 40 39 36 33 31 31 30 30 30 29 29 29 29 29 30 31 31 31 32
54 54 54 54 54 54 54 54 54 53 53 53 52 52 52 52 52 52 52 52 52 51 51 51 51 50 50 49 49 48 48 46 45 45 45 45 45 45 45 45 45 45 46 46 46 45 45 44 43 42 41 39 35 32 30 30 29 28 28 28 28 28 28 28 29 29 30 31 32
54 54 53 53 53 53 53 53 53 53 52 52 52 52 52 51 51 51 51 51 51 51 51 51 50 50 49 48 47 46 45 45 45 45 45 45 45 45 45 45 46 47 47 47 46 46 45 45 44 42 39 36 32 30 29 29 28 27 27 27 27 27 27 27 28 29 30 31 33
53 53 53 53 53 53 52 52 52 52 51 51 51 51 51 51 51 51 51 50 50 50 50 49 49 49 48 47 46 45 45 45 45 45 45 45 45 46 46 46 47 47 48 48 47 46 45 44 42 40 37 34 31 30 29 28 27 27 27 27 27 27 27 27 28 29 31 32 33
53 53 52 52 52 52 52 52 51 51 51 50 50 50 50 50 50 50 50 50 49 49 49 48 47 47 46 45 45 45 45 45 45 45 46 46 46 46 46 46 46 47 47 47 46 45 44 43 40 38 36 32 30 29 28 28 27 27 27 27 27 27 27 27 28 30 31 32 33
52 52 52 52 51 51 51 51 50 50 50 50 50 50 50 50 49 49 49 49 48 48 47 46 46 45 45 45 45 45 45 46 47 47 46 46 46 46 46 45 45 45 46 46 45 44 43 41 40 37 35 31 30 30 29 28 27 27 27 27 27 27 27 28 29 30 31 33 35
52 52 51 51 51 50 50 50 50 50 49 49 49 49 49 49 49 49 49 48 47 46 46 45 45 45 45 45 45 45 45 46 47 47 46 46 45 45 45 44 44 44 44 45 44 43 41 40 39 37 35 32 31 30 29 28 27 27 27 27 27 27 28 28 30 31 32 34 36
51 51 51 50 50 50 50 50 50 50 49 49 49 49 49 49 48 48 47 46 46 45 45 45 45 45 45 45 44 45 45 45 45 45 45 44 44 44 43 42 41 42 42 43 43 42 40 40 38 37 35 32 31 30 29 28 28 27 27 27 27 27 28 29 30 32 33 35 37
51 51 50 50 50 50 50 49 50 50 49 49 49 49 48 48 47 46 46 45 45 45 45 45 45 44 44 44 44 44 43 43 42 42 42 42 42 42 41 40 40 40 40 41 41 41 40 39 38 37 35 31 31 30 29 28 28 27 27 27 27 27 28 29 31 32 34 36 36